Flag for Argentina Weather past 2 weeks in Tucumán, Tucumán, Argentina

Now
77 °F

Passing clouds.


Feels Like: 79 °F
Forecast: N/A
Wind: 6 mph from South

Location: Tucuman Aerodrome

Current Time: Apr 26, 2015 at 7:41:02 PM

Latest Report: Apr 26, 2015 at 7:00 PM


Visibility: N/A

Pressure: 29.95 "Hg

Humidity: 79%

Dew point: 70 °F

Location of TucumánLocation

Historic Weather in Tucumán — Graph

°F

Tucumán temperature yesterday

Maximum temperature yesterday: 84 °F (at 4:00 PM)
Minimum temperature yesterday: 64 °F (at 1:00 AM)
Average temperature yesterday: 73 °F

Past Weeks' High & Low Weather Summary

 TemperatureHumidityPressure
High88 °F (Apr 12, 2:00 PM)100% (Apr 16, 6:00 AM)30.24 "Hg (Apr 16, 6:00 AM)
Low57 °F (Apr 22, 5:00 AM)51% (Apr 25, 4:00 PM)29.65 "Hg (Apr 19, 6:00 AM)
Average70 °F83%29.99 "Hg
* Reported Apr 11 7:00 PM — Apr 26 6:00 PM, Tucumán, Weather by CustomWeather, © 2015

Note: Actual official high and low records may vary slightly from our data, if they occured in-between our weather recording intervals... More about our weather records

Advertising

Tucumán weather history for previous 24 hours

 ConditionsComfort  
Time TempWeatherWind HumidityBarometerVisibility
6:00 PM
Sun, Apr 26
79 °FPassing clouds.7 mph74%29.92 "HgN/A
5:00 PM82 °FScattered clouds.6 mph62%29.92 "HgN/A
2:00 PM82 °FPartly sunny.7 mph62%29.92 "HgN/A
1:00 PM81 °FScattered clouds.7 mph58%29.95 "HgN/A
12:00 PM79 °FPassing clouds.8 mph70%29.98 "HgN/A
9:00 AM66 °FScattered clouds.7 mph88%29.98 "HgN/A
8:00 AM64 °FScattered clouds.6 mph88%29.98 "HgN/A
7:00 AM66 °FPartly sunny.6 mph88%29.95 "HgN/A
6:00 AM64 °FPassing clouds.5 mph88%29.95 "HgN/A
5:00 AM68 °FPassing clouds.6 mph83%29.95 "HgN/A
4:00 AM66 °FPassing clouds.8 mph88%29.95 "HgN/A
3:00 AM66 °FPassing clouds.9 mph83%29.98 "HgN/A
2:00 AM64 °FPassing clouds.7 mph88%29.98 "HgN/A
1:00 AM66 °FPassing clouds.7 mph88%29.98 "HgN/A
12:00 AM66 °FPassing clouds.3 mph88%29.98 "HgN/A
11:00 PM
Sat, Apr 25
70 °FPassing clouds.5 mph83%29.98 "HgN/A
10:00 PM72 °FPassing clouds.2 mph78%29.98 "HgN/A
9:00 PM73 °FPassing clouds.5 mph74%29.98 "HgN/A
8:00 PM75 °FPassing clouds.9 mph69%29.95 "HgN/A
7:00 PM79 °FPassing clouds.16 mph61%29.92 "HgN/A
Weather by CustomWeather, © 2015

See weather overviewHow to use our weather pages